Starlink 11616

operational
NORAD ID: 63137 Int'l Des: 2025-043 Owner: SPXS Country: US Constellation: starlink
LEOCIRCULAR

About Starlink 11616

Description loading...

Live Position

Loading 3D Globe...

Upcoming Passes

Altitude History

Altitude vs Time

uPlot chart will show altitude changes over time

Two-Line Element Set

1 63137U 25043F 26034.84988269 .00319775 00000-0 23924-2 0 9997
2 63137 42.9998 94.3659 0000839 310.6312 49.4483 15.70924098 54157
Epoch: Feb 3, 2026 • Age: 13 hours

Current Status

Altitude 364.3 km
Velocity 7.69 km/s
Sub-Earth Point -34.07°S, 121.8°E
Launch Date Mar 3, 2025
Age 0.9 years
Type internet

Technical Details

Classification Payload
Mass 960.00 kg
Dry Mass 910.00 kg
Total Mass 960.00 kg
Length 0.30 m
Diameter 4.10 m
Span 29.00 m
Shape Box + pan
Manufacturer SPXS
Bus Type Starlink V2MD
Phase Status In Orbit
Owner/State SPXS/US

Large Constellations

Loading constellations...